Previsão horária em Aljustrel

Hoje, 16 Junho, Quarta-feira

Tempo Temperatura Precipitação Vento Pressão Humidade
00:00 +18°C° 0 mm 2 m/s 746 mmHg 90%
01:00 +17°C° 0 mm 2 m/s 746 mmHg 90%
02:00 +17°C° 0 mm 2 m/s 745 mmHg 91%
03:00 +17°C° 0 mm 2 m/s 745 mmHg 90%
04:00 +17°C° 0 mm 2 m/s 745 mmHg 90%
05:00 +16°C° 0 mm 1 m/s 745 mmHg 89%
06:00 +18°C° 0 mm 2 m/s 746 mmHg 79%
07:00 +20°C° 0 mm 2 m/s 746 mmHg 68%
08:00 +22°C° 0 mm 3 m/s 746 mmHg 57%
09:00 +25°C° 0 mm 3 m/s 746 mmHg 50%
10:00 +27°C° 0 mm 4 m/s 746 mmHg 43%
11:00 +29°C° 0 mm 4 m/s 745 mmHg 36%
12:00 +29°C° 0 mm 4 m/s 745 mmHg 34%
13:00 +30°C° 0 mm 5 m/s 744 mmHg 33%
14:00 +30°C° 0 mm 5 m/s 744 mmHg 31%
15:00 +29°C° 0 mm 5 m/s 744 mmHg 35%
16:00 +28°C° 0 mm 5 m/s 744 mmHg 38%
17:00 +27°C° 0 mm 6 m/s 744 mmHg 41%
18:00 +25°C° 0 mm 5 m/s 744 mmHg 52%
19:00 +21°C° 0 mm 4 m/s 745 mmHg 63%
20:00 +19°C° 0 mm 3 m/s 745 mmHg 73%
21:00 +18°C° 0 mm 2 m/s 745 mmHg 77%
22:00 +19°C° 0 mm 1 m/s 745 mmHg 80%
23:00 +18°C° 0 mm 1 m/s 745 mmHg 84%

Amanhã, 17 Junho, Quinta-feira

Tempo Temperatura Precipitação Vento Pressão Humidade
00:00 +18°C° 0 mm 1 m/s 745 mmHg 83%
01:00 +18°C° 0 mm 1 m/s 745 mmHg 83%
02:00 +18°C° 0 mm 1 m/s 744 mmHg 83%
03:00 +18°C° 0 mm 1 m/s 745 mmHg 79%
04:00 +19°C° 0 mm 1 m/s 745 mmHg 76%
05:00 +20°C° 0 mm 1 m/s 745 mmHg 72%
06:00 +20°C° 0 mm 1 m/s 745 mmHg 70%
07:00 +21°C° 0 mm 1 m/s 745 mmHg 68%
08:00 +20°C° 0 mm 2 m/s 745 mmHg 66%
09:00 +21°C° 0 mm 2 m/s 745 mmHg 62%
10:00 +23°C° 0 mm 2 m/s 745 mmHg 58%
11:00 +24°C° 0 mm 2 m/s 745 mmHg 55%
12:00 +23°C° 0.4 mm 4 m/s 745 mmHg 55%
13:00 +25°C° 0.4 mm 5 m/s 745 mmHg 55%
14:00 +24°C° 0.4 mm 6 m/s 745 mmHg 55%
15:00 +23°C° 0.1 mm 6 m/s 745 mmHg 56%
16:00 +23°C° 0.1 mm 6 m/s 745 mmHg 58%
17:00 +22°C° 0.1 mm 6 m/s 745 mmHg 59%
18:00 +21°C° 0 mm 5 m/s 746 mmHg 66%
19:00 +19°C° 0 mm 5 m/s 746 mmHg 72%
20:00 +18°C° 0 mm 4 m/s 746 mmHg 78%
21:00 +17°C° 0 mm 4 m/s 746 mmHg 83%
22:00 +16°C° 0 mm 3 m/s 746 mmHg 87%
23:00 +14°C° 0 mm 3 m/s 746 mmHg 92%

Depois de amanhã, 18 Junho, Sexta-feira

Tempo Temperatura Precipitação Vento Pressão Humidade
00:00 +14°C° 0.1 mm 3 m/s 746 mmHg 92%
01:00 +14°C° 0.1 mm 3 m/s 746 mmHg 92%
02:00 +14°C° 0.1 mm 3 m/s 746 mmHg 92%
03:00 +15°C° 0.2 mm 2 m/s 746 mmHg 91%
04:00 +15°C° 0.2 mm 2 m/s 746 mmHg 91%
05:00 +15°C° 0.2 mm 2 m/s 746 mmHg 91%
06:00 +16°C° 0 mm 2 m/s 746 mmHg 80%
07:00 +18°C° 0 mm 2 m/s 746 mmHg 70%
08:00 +20°C° 0 mm 3 m/s 746 mmHg 60%
09:00 +22°C° 0 mm 3 m/s 746 mmHg 51%
10:00 +24°C° 0 mm 3 m/s 746 mmHg 43%
11:00 +26°C° 0 mm 4 m/s 746 mmHg 35%
12:00 +26°C° 0 mm 5 m/s 745 mmHg 33%
13:00 +27°C° 0 mm 6 m/s 745 mmHg 32%
14:00 +27°C° 0 mm 6 m/s 745 mmHg 30%
15:00 +26°C° 0 mm 6 m/s 745 mmHg 36%
16:00 +24°C° 0 mm 6 m/s 745 mmHg 42%
17:00 +22°C° 0 mm 6 m/s 745 mmHg 48%
18:00 +21°C° 0 mm 5 m/s 746 mmHg 59%
19:00 +19°C° 0 mm 5 m/s 746 mmHg 70%
20:00 +17°C° 0 mm 4 m/s 746 mmHg 81%
21:00 +15°C° 0 mm 4 m/s 747 mmHg 84%
22:00 +15°C° 0 mm 4 m/s 747 mmHg 87%
23:00 +14°C° 0 mm 3 m/s 747 mmHg 89%

19 Junho, Sábado

Tempo Temperatura Precipitação Vento Pressão Humidade
00:00 +14°C° 0 mm 3 m/s 747 mmHg 91%
01:00 +14°C° 0 mm 3 m/s 747 mmHg 93%
02:00 +14°C° 0 mm 2 m/s 746 mmHg 94%
03:00 +14°C° 0 mm 3 m/s 746 mmHg 90%
04:00 +14°C° 0 mm 3 m/s 747 mmHg 86%
05:00 +16°C° 0 mm 3 m/s 747 mmHg 82%
06:00 +17°C° 0 mm 3 m/s 747 mmHg 77%
07:00 +18°C° 0 mm 3 m/s 747 mmHg 71%
08:00 +19°C° 0 mm 3 m/s 747 mmHg 65%
09:00 +20°C° 0.2 mm 4 m/s 747 mmHg 62%
10:00 +21°C° 0.2 mm 5 m/s 747 mmHg 58%
11:00 +22°C° 0.2 mm 5 m/s 747 mmHg 54%
12:00 +22°C° 0.1 mm 6 m/s 747 mmHg 53%
13:00 +22°C° 0.1 mm 6 m/s 747 mmHg 52%
14:00 +22°C° 0.1 mm 7 m/s 747 mmHg 51%
15:00 +22°C° 0 mm 7 m/s 747 mmHg 52%
16:00 +21°C° 0 mm 6 m/s 748 mmHg 53%
17:00 +21°C° 0 mm 6 m/s 748 mmHg 54%
18:00 +19°C° 0 mm 6 m/s 748 mmHg 62%
19:00 +17°C° 0 mm 5 m/s 749 mmHg 69%
20:00 +15°C° 0 mm 5 m/s 749 mmHg 77%
21:00 +14°C° 0 mm 4 m/s 749 mmHg 80%
22:00 +13°C° 0 mm 4 m/s 749 mmHg 83%
23:00 +13°C° 0 mm 3 m/s 749 mmHg 86%

20 Junho, Domingo

Tempo Temperatura Precipitação Vento Pressão Humidade
00:00 +14°C° 0 mm 2 m/s 749 mmHg 87%
01:00 +13°C° 0 mm 2 m/s 749 mmHg 88%
02:00 +13°C° 0 mm 2 m/s 749 mmHg 89%
03:00 +14°C° 0 mm 2 m/s 749 mmHg 88%
04:00 +14°C° 0 mm 2 m/s 749 mmHg 87%
05:00 +14°C° 0 mm 2 m/s 749 mmHg 85%
06:00 +16°C° 0 mm 2 m/s 749 mmHg 80%
07:00 +17°C° 0 mm 3 m/s 749 mmHg 75%
08:00 +18°C° 0 mm 4 m/s 749 mmHg 70%
09:00 +19°C° 0 mm 4 m/s 749 mmHg 70%
10:00 +20°C° 0 mm 5 m/s 749 mmHg 70%
11:00 +21°C° 0 mm 5 m/s 749 mmHg 69%
12:00 +21°C° 0 mm 5 m/s 749 mmHg 73%
13:00 +21°C° 0 mm 5 m/s 749 mmHg 77%
14:00 +20°C° 0 mm 5 m/s 749 mmHg 80%
15:00 +21°C° 0.1 mm 5 m/s 748 mmHg 79%
16:00 +21°C° 0.1 mm 5 m/s 748 mmHg 78%
17:00 +21°C° 0.1 mm 5 m/s 748 mmHg 77%
18:00 +20°C° 0 mm 4 m/s 749 mmHg 81%
19:00 +19°C° 0 mm 4 m/s 749 mmHg 86%
20:00 +18°C° 0 mm 3 m/s 749 mmHg 91%
21:00 +17°C° 0 mm 3 m/s 749 mmHg 91%
22:00 +16°C° 0 mm 3 m/s 749 mmHg 91%
23:00 +15°C° 0 mm 2 m/s 749 mmHg 91%

21 Junho, Segunda-feira

Tempo Temperatura Precipitação Vento Pressão Humidade
00:00 +14°C° 0 mm 2 m/s 749 mmHg 92%
01:00 +14°C° 0 mm 2 m/s 749 mmHg 92%
02:00 +13°C° 0 mm 2 m/s 749 mmHg 92%
03:00 +13°C° 0 mm 1 m/s 749 mmHg 90%
04:00 +14°C° 0 mm 1 m/s 749 mmHg 88%
05:00 +14°C° 0 mm 1 m/s 749 mmHg 86%
06:00 +16°C° 0 mm 2 m/s 749 mmHg 74%
07:00 +19°C° 0 mm 2 m/s 749 mmHg 61%
08:00 +21°C° 0 mm 3 m/s 750 mmHg 48%
09:00 +22°C° 0 mm 3 m/s 749 mmHg 43%
10:00 +25°C° 0 mm 4 m/s 749 mmHg 38%
11:00 +27°C° 0 mm 4 m/s 749 mmHg 32%
12:00 +27°C° 0 mm 5 m/s 749 mmHg 31%
13:00 +27°C° 0 mm 5 m/s 749 mmHg 30%
14:00 +28°C° 0 mm 6 m/s 748 mmHg 29%
15:00 +27°C° 0 mm 6 m/s 748 mmHg 32%
16:00 +26°C° 0 mm 6 m/s 748 mmHg 34%
17:00 +24°C° 0 mm 6 m/s 748 mmHg 37%
18:00 +22°C° 0 mm 6 m/s 748 mmHg 42%
19:00 +20°C° 0 mm 6 m/s 749 mmHg 47%
20:00 +17°C° 0 mm 6 m/s 749 mmHg 52%
21:00 +16°C° 0 mm 6 m/s 749 mmHg 60%
22:00 +15°C° 0 mm 5 m/s 749 mmHg 67%
23:00 +13°C° 0 mm 5 m/s 749 mmHg 74%
Mostrar mais